Torna al catalogo

SL-12 DEB

LostHEO
NORAD 42981·DEBRIS·🇷🇺 Russia

Lanciato Sep 2, 2010 da Baikonur Cosmodrome

Loading…

Prossimi Passaggi (prossime 24 ore)

TLE

ObsoletoSource: Space-Track

Epoca: Sep 19, 2022, 06:43 UTC

1 42981U 10041W   22262.28026587  .00000454  00000-0  17033-2 0  9991
2 42981  65.6499 199.7496 5524752 320.3794 105.7994  4.49651688 82262

Traccia SL-12 DEB in tempo reale con AllMySat

Download on the App Store